Weather in Okara

Pakistan     30°47′58″N   73°26′42″E
temp.,
°C
wind,
m/s
gust,
m/s
humid.,
%
clouds,
%
prec.,
mm/h
press.,
hPa
HPBL,
m
17 may, mon
mon1723:00+30nw4835100 1.1 1007248
02:00+28nnw510382 0.0 1006201
05:00+27n363950 0.0 100696
08:00+33ne35285 0.0 1007374
11:00+39ne22170 0.0 10072409
14:00+40nne34144 0.0 10044118
17:00+39nne65155 0.1 10022562
20:00+35e33211 0.0 100338
18 may, tue
tue1823:00+33wnw33230 0.0 100341
02:00+31n35230 0.0 100269
05:00+29ene22270 0.0 100317
08:00+34ssw2220100 0.0 1004391
11:00+39s3317100 0.0 10032303
14:00+41s431471 0.0 10004182
17:00+33sse91132100 0.0 1000420
20:00+31ssw81437100 0.0 1003733
19 may, wed
wed1923:00+31ssw493588 0.0 1003442
02:00+29ssw2537100 0.0 1002173
05:00+29se2239100 0.0 100325
08:00+31ssw4534100 0.0 10041337
11:00+33se4431100 0.0 10031849
14:00+35e3427100 0.0 10012639
17:00+32se7734100 0.0 1000910
20:00+29sse5843100 0.0 1001600
20 may, thu
thu2023:00+28ese484899 0.0 1003777
02:00+27se245390 0.0 1001262
05:00+26ese2461100 0.0 1002434
08:00+28e3447100 0.0 1003809
11:00+32ne22360 0.0 10031368
14:00+36e13271 0.0 10012494
17:00+37ese342692 0.0 9992136
20:00+34se59320 0.4 1000363
21 may, fri
fri2123:00+28se712560 0.4 1002504
02:00+27se612575 0.0 1001432
05:00+26se6135499 0.0 1000458
08:00+31sse68441 0.0 1002753
11:00+36ne663397 0.3 10012262
14:00+36ne98320 1.4 10001550
17:00+36ne89320 1.4 9991411
20:00+32nne610390 0.0 1001640